I2HLY-3 Weather Reports


Display with metric or nautical units.
time (UTC)temp
F
wind
direction
speed
MPH
gust
MPH
rain 1hr
in
rain 24hr
in
rain mn
in
humidity
%
barometer
mb
20260902143231 87 219 4.0 7.0 0.00 0.00 0.00 51 1015.2
20260902141729 86 184 5.0 9.0 0.00 0.00 0.00 52 1015.2
20260902140225 86 90 2.0 8.0 0.00 0.00 0.00 50 1015.4
20260902134731 86 209 4.0 5.0 0.00 0.00 0.00 52 1015.5
20260902133231 86 316 2.0 7.0 0.00 0.00 0.00 52 1015.7
20260902131738 86 184 1.0 8.0 0.00 0.00 0.00 51 1015.9
20260902124737 86 167 1.0 6.0 0.00 0.00 0.00 57 1016.2
20260902123230 86 105 4.0 7.0 0.00 0.00 0.00 56 1016.4
20260902121730 85 156 1.0 8.0 0.00 0.00 0.00 55 1016.6
20260902120233 86 174 1.0 8.0 0.00 0.00 0.00 56 1016.7
20260902113224 86 228 3.0 5.0 0.00 0.00 0.00 57 1017.0
20260902111726 84 147 4.0 7.0 0.00 0.00 0.00 59 1017.2
20260902110232 86 87 3.0 7.0 0.00 0.00 0.00 57 1017.2
20260902104721 86 189 1.0 5.0 0.00 0.00 0.00 55 1017.4
20260902103221 83 161 4.0 7.0 0.00 0.00 0.00 60 1017.5
20260902101733 83 32 2.0 5.0 0.00 0.00 0.00 60 1017.7
20260902100229 83 156 2.0 3.0 0.00 0.00 0.00 59 1017.9
20260902094736 83 117 1.0 3.0 0.00 0.00 0.00 60 1017.9
20260902093221 83 109 2.0 8.0 0.00 0.00 0.00 59 1017.9
20260902091728 82 178 3.0 5.0 0.00 0.00 0.00 63 1018.0
20260902084737 81 57 2.0 7.0 0.00 0.00 0.00 60 1018.0
20260902083227 81 138 2.0 6.0 0.00 0.00 0.00 60 1018.1
20260902081721 80 58 1.0 5.0 0.00 0.00 0.00 63 1018.0
20260902080235 79 107 3.0 7.0 0.00 0.00 0.00 65 1018.0
20260902073230 79 82 3.0 5.0 0.00 0.00 0.00 64 1017.8
20260902071728 79 88 2.0 6.0 0.00 0.00 0.00 68 1017.7
20260902070228 78 112 3.0 7.0 0.00 0.00 0.00 69 1017.5
20260902064732 78 57 1.0 3.0 0.00 0.00 0.00 74 1017.5
20260902063223 75 32 2.0 5.0 0.00 0.00 0.00 81 1017.5
20260902061736 71 88 0.0 0.0 0.00 0.00 0.00 93 1017.5
20260902060232 69 82 0.0 0.0 0.00 0.00 0.00 94 1017.4
20260902054732 67 82 0.0 0.0 0.00 0.00 0.00 94 1017.4
20260902053225 66 82 0.0 0.0 0.00 0.00 0.00 94 1017.3
20260902051723 65 82 0.0 0.0 0.00 0.00 0.00 94 1017.2
20260902050232 64 82 0.0 0.0 0.00 0.00 0.00 93 1017.0
20260902044727 65 82 0.0 0.0 0.00 0.00 0.00 93 1017.0
20260902043219 65 82 0.0 0.0 0.00 0.00 0.00 93 1016.8
20260902041728 65 82 0.0 0.0 0.00 0.00 0.00 93 1016.8
20260902040227 65 82 0.0 0.0 0.00 0.00 0.00 93 1016.7
20260902034736 65 82 0.0 1.0 0.00 0.00 0.00 93 1016.8
20260902033219 65 82 0.0 1.0 0.00 0.00 0.00 93 1016.7
20260902031730 66 82 0.0 0.0 0.00 0.00 0.00 93 1016.7
20260902030223 66 82 0.0 0.0 0.00 0.00 0.00 93 1016.7
20260902024730 66 82 0.0 1.0 0.00 0.00 0.00 93 1016.8
20260902023236 66 82 0.0 1.0 0.00 0.00 0.00 92 1016.8
20260902021735 67 82 0.0 0.0 0.00 0.00 0.00 93 1016.6
20260902020229 67 82 0.0 0.0 0.00 0.00 0.00 92 1016.6
20260902014727 67 82 0.0 1.0 0.00 0.00 0.00 92 1016.6
20260902013234 67 82 0.0 1.0 0.00 0.00 0.00 92 1016.7
20260902011723 67 82 0.0 0.0 0.00 0.00 0.00 92 1016.7
20260902010236 67 82 0.0 0.0 0.00 0.00 0.00 92 1016.7
20260902004732 67 82 0.0 0.0 0.00 0.00 0.00 92 1016.7
20260902003232 67 81 0.0 0.0 0.00 0.00 0.00 91 1016.7
20260902001721 67 82 0.0 0.0 0.00 0.00 0.00 91 1016.7
20260902000219 67 82 0.0 0.0 0.00 0.00 0.00 91 1016.7
20260901234735 68 81 0.0 0.0 0.00 0.00 0.00 90 1016.7
20260901233229 68 82 0.0 0.0 0.00 0.00 0.00 90 1016.7
20260901231722 69 82 0.0 0.0 0.00 0.00 0.00 90 1016.8
20260901230228 69 82 0.0 0.0 0.00 0.00 0.00 89 1016.8
20260901224725 69 82 0.0 0.0 0.00 0.00 0.00 89 1016.8
20260901223220 69 82 0.0 0.0 0.00 0.00 0.00 89 1016.7
20260901221718 69 82 0.0 0.0 0.00 0.00 0.00 89 1016.7
20260901220234 69 82 0.0 0.0 0.00 0.00 0.00 89 1016.7
20260901214731 69 82 0.0 0.0 0.00 0.00 0.00 89 1016.7
20260901213220 69 82 0.0 0.0 0.00 0.00 0.00 88 1016.7
20260901211729 70 82 1.0 2.0 0.00 0.00 0.00 87 1016.6
20260901210238 70 82 0.0 0.0 0.00 0.00 0.00 87 1016.6
20260901204731 71 82 0.0 0.0 0.00 0.00 0.00 86 1016.7
20260901203220 71 82 0.0 0.0 0.00 0.00 0.00 86 1016.6
20260901201720 71 82 0.0 0.0 0.00 0.00 0.00 84 1016.4
20260901200225 72 82 0.0 0.0 0.00 0.00 0.00 84 1016.3
20260901194738 72 82 0.0 1.0 0.00 0.00 0.00 82 1016.3
20260901193225 73 82 0.0 2.0 0.00 0.00 0.00 81 1016.1
20260901191733 73 82 0.0 0.0 0.00 0.00 0.00 79 1016.0
20260901190232 74 82 0.0 1.0 0.00 0.00 0.00 77 1015.7
20260901184731 75 82 0.0 1.0 0.00 0.00 0.00 76 1015.5
20260901183222 76 82 0.0 1.0 0.00 0.00 0.00 74 1015.5
20260901181721 77 82 0.0 1.0 0.00 0.00 0.00 71 1015.3
20260901180238 78 82 1.0 2.0 0.00 0.00 0.00 67 1015.2
20260901174731 81 82 0.0 1.0 0.00 0.00 0.00 61 1015.1
20260901173221 83 82 1.0 2.0 0.00 0.00 0.00 57 1015.0
20260901170238 84 71 2.0 6.0 0.00 0.00 0.00 53 1015.0
20260901164734 85 101 1.0 4.0 0.00 0.00 0.00 53 1015.0
20260901163225 85 99 0.0 6.0 0.00 0.00 0.00 53 1015.1
20260901160221 85 125 3.0 7.0 0.00 0.00 0.00 52 1015.0
20260901153229 85 86 3.0 8.0 0.00 0.00 0.00 52 1015.1
20260901151725 85 111 3.0 5.0 0.00 0.00 0.00 53 1015.2
20260901150230 85 128 3.0 9.0 0.00 0.00 0.00 53 1015.3
20260901144732 85 198 2.0 8.0 0.00 0.00 0.00 54 1015.4